DELTA 1 DEB, 1313

Orbit data source: Space-Track

DELTA 1 DEB, 1313 is space debris in SSO originally from a launch on Fri, 22 Jan 1965 UTC launched from the Air Force Eastern Test Range (AFETR). Debris objects in space refer to the collection of defunct objects orbiting the Earth. Examples of debris include non-operational satellites, rocket bodies, and fragments generated from explosions, collisions, or faulty payload assembly.

Loading next visibility...
Identifier
1313, 1965-004D
Orbit
SSO
Country
Flag of USUS
Related business
Manufacturer
Unknown
Mission
Spacecraft
Bus & Motor
Unknown
Mass
~1 kg wet, ~1 kg dry
Launch date (UTC)
1965-01-22 (61 years ago)
Launch vehicle
Unknown
Launch site
Air Force Eastern Test Range (AFETR)
Object type
Payload
Rocket body
Debris
Shape & HBR
Unknown
Radar Cross Section
Small (<0.1 m²)

Expand to show TLE details & history
Last TLE update: 15 hours ago

TLE from 15 hours ago
0 DELTA 1 DEB
1 01313U 65004D   26140.85034414  .00000037  00000-0  71944-4 0  9994
2 01313  96.4206  97.1280 1175038  24.1031 341.0716 12.00822470683162
Epoch: 2026-05-20T20:24Z
TLE epoch observation values (Epoch: 2026-05-20T20:24:29.733Z)
Latitude
0.00003°
Longitude
-87.49987°
Altitude
798.334 km
Speed
7.851 km/s
True Right ascension
06h 28m 30s
True Declination
0° 00' 00"
Sunlit
Object was in daylight at epoch
Visualization orbit readout
Latitude
Unknown
Longitude
Unknown
Altitude
Unknown
Speed
Unknown
Apparent Right ascension
Unknown
Apparent Declination
Unknown
Sunlit
N/A
Visualization observer readout
Local Sidereal Time
20:19:29
Azimuth
Unknown
Elevation
Unknown
Doppler factor
Unknown
Orbital elements
Apogee altitude
2,620.714 km
Perigee altitude
728.284 km
Semi-major axis
8,052.636 km
Eccentricity
0.1175
Inclination
96.4206°
RAAN
97.128°
Arg. of periapsis
24.1031°
True anomaly
336.0111°
Mean anomaly
341.0716°
Eccentric anomaly
338.61693°
Mean motion
3.00356 °/min
Orbital period
119.86 mins
BSTAR
0.000071944
Loading maneuver chart data...
Computing Atmospheric mass density...
Loading historical data...
Loading historical data...
Loading historical data...
Loading historical data...
Loading historical data...
Loading historical data...
Loading historical data...
Other satellites on launch #4 in the year 1965 (1965-01-22 UTC)

Documentation

Showing up to 5 results
|